Terug naar catalogus

FENGYUN 1C DEB

ActiefSSO
NORAD 31051·DEBRIS·🇨🇳 China

Gelanceerd May 10, 1999 vanaf Taiyuan Satellite Launch Center

Loading…

Volgende Passages (komende 24 uur)

TLE

VerouderendSource: Space-Track

Epoch: Sep 9, 2026, 07:28 UTC

1 31051U 99025BEV 26252.31144469  .00000151  00000-0  12210-3 0  9990
2 31051  98.7906 279.0789 0053800  99.8911 260.8335 14.03178468676138

Volg FENGYUN 1C DEB in realtime met AllMySat

Download on the App Store